Location: Ay?beleni
(36.6500°N, 30.3000°E)
Time: 01:53:25
(UTC+00:00)

Envisat - Visible Passes

Search period start: 01 August 2021 00:00
Search period end: 11 August 2021 00:00
Orbit: 764 x 766 km, 98.2° (Epoch: 31 July)

Date Brightness Start Highest point End Pass type
(mag) Time Alt. Az. Time Alt. Az. Time Alt. Az.
02 Aug 5.0 02:30:52 10° NE 02:35:18 30° E 02:39:42 10° SSE visible
03 Aug 5.9 01:56:02 10° ENE 01:58:10 12° E 02:00:17 10° ESE visible
05 Aug 5.4 02:19:44 10° NE 02:23:45 23° E 02:27:44 10° SSE visible
08 Aug 5.7 02:08:44 10° NE 02:12:10 18° E 02:15:34 10° SE visible
10 Aug 4.9 02:33:09 10° NNE 02:37:41 32° E 02:42:12 10° SSE visible
